BTK6455 WIJJ-WIEE

Flight info

Callsign BTK6455
Flight time 0h 55m
Altitude 32000
Route OVSET DCT OSNIS
Aircraft A20N/M-SDE2E3FGHIRWXY/LB1

Departure

Time 2026-05-07 12:11
Airport Sultan Thaha Airport (WIJJ)

Arrival

Time 2026-05-07 13:06
Airport Minangkabau International Airport (WIEE)
Time Latitude Longitude Altitude Speed Heading
2026-05-07 11:54 -1.63340 103.64325 92 ft 0 kts 41°
2026-05-07 12:04 -1.63348 103.64319 98 ft 3 kts 41°
2026-05-07 12:05 -1.63363 103.64306 93 ft 3 kts 41°
2026-05-07 12:05 -1.63376 103.64295 93 ft 3 kts 31°
2026-05-07 12:05 -1.63393 103.64288 93 ft 3 kts 351°
2026-05-07 12:05 -1.63411 103.64294 94 ft 3 kts 318°
2026-05-07 12:06 -1.63422 103.64305 95 ft 1 kts 308°
2026-05-07 12:06 -1.63425 103.64309 95 ft 0 kts 308°
2026-05-07 12:08 -1.63423 103.64308 95 ft 1 kts 308°
2026-05-07 12:08 -1.63407 103.64287 95 ft 6 kts 308°
2026-05-07 12:08 -1.63374 103.64245 98 ft 9 kts 308°
2026-05-07 12:08 -1.63327 103.64185 98 ft 12 kts 308°
2026-05-07 12:09 -1.63306 103.64128 97 ft 9 kts 250°
2026-05-07 12:09 -1.63359 103.64077 97 ft 12 kts 218°
2026-05-07 12:09 -1.63429 103.64020 97 ft 13 kts 230°
2026-05-07 12:09 -1.63402 103.63945 99 ft 13 kts 311°
2026-05-07 12:10 -1.63335 103.63864 101 ft 19 kts 309°
2026-05-07 12:10 -1.63275 103.63756 103 ft 10 kts 289°
2026-05-07 12:10 -1.63252 103.63765 103 ft 2 kts 112°
2026-05-07 12:10 -1.63258 103.63771 103 ft 0 kts 128°
2026-05-07 12:11 -1.63315 103.63841 102 ft 43 kts 129°
2026-05-07 12:11 -1.63671 103.64275 94 ft 115 kts 130°
2026-05-07 12:11 -1.64298 103.65029 160 ft 159 kts 129°
2026-05-07 12:11 -1.64974 103.65848 868 ft 153 kts 129°
2026-05-07 12:12 -1.65629 103.66648 1574 ft 147 kts 129°
2026-05-07 12:12 -1.66276 103.67443 2144 ft 154 kts 129°
2026-05-07 12:12 -1.67198 103.68048 2517 ft 172 kts 172°
2026-05-07 12:12 -1.68375 103.67678 2915 ft 193 kts 220°
2026-05-07 12:13 -1.68986 103.66415 3224 ft 220 kts 264°
2026-05-07 12:13 -1.68613 103.64868 3468 ft 244 kts 295°
2026-05-07 12:13 -1.67725 103.63347 3860 ft 258 kts 302°
2026-05-07 12:13 -1.66723 103.61857 4504 ft 258 kts 304°
2026-05-07 12:14 -1.65699 103.60371 5075 ft 261 kts 304°
2026-05-07 12:14 -1.64676 103.58893 5619 ft 263 kts 304°
2026-05-07 12:14 -1.63819 103.57282 6117 ft 264 kts 284°
2026-05-07 12:14 -1.63572 103.55468 6604 ft 266 kts 274°
2026-05-07 12:15 -1.63431 103.53619 7164 ft 268 kts 273°
2026-05-07 12:15 -1.63299 103.51746 7826 ft 271 kts 273°
2026-05-07 12:15 -1.63161 103.49857 8591 ft 274 kts 274°
2026-05-07 12:15 -1.63013 103.47951 9415 ft 277 kts 274°
2026-05-07 12:16 -1.62858 103.46020 10170 ft 281 kts 274°
2026-05-07 12:16 -1.62698 103.44059 10881 ft 285 kts 274°
2026-05-07 12:16 -1.62535 103.42076 11591 ft 289 kts 274°
2026-05-07 12:16 -1.62370 103.40080 12263 ft 296 kts 274°
2026-05-07 12:17 -1.62195 103.37950 12542 ft 320 kts 275°
2026-05-07 12:17 -1.62005 103.35662 12794 ft 344 kts 275°
2026-05-07 12:17 -1.61801 103.33185 13040 ft 367 kts 275°
2026-05-07 12:17 -1.61588 103.30611 13631 ft 375 kts 275°
2026-05-07 12:18 -1.61373 103.28005 14315 ft 379 kts 275°
2026-05-07 12:18 -1.61155 103.25361 15018 ft 382 kts 275°
2026-05-07 12:18 -1.60935 103.22705 15691 ft 386 kts 275°
2026-05-07 12:18 -1.60712 103.20014 16364 ft 390 kts 275°
2026-05-07 12:19 -1.60488 103.17311 17015 ft 394 kts 275°
2026-05-07 12:19 -1.60260 103.14570 17657 ft 397 kts 275°
2026-05-07 12:19 -1.60031 103.11799 18258 ft 401 kts 275°
2026-05-07 12:19 -1.59802 103.09044 18791 ft 405 kts 275°
2026-05-07 12:20 -1.59569 103.06238 19341 ft 408 kts 275°
2026-05-07 12:20 -1.59334 103.03405 19876 ft 411 kts 275°
2026-05-07 12:20 -1.59097 103.00543 20407 ft 414 kts 275°
2026-05-07 12:20 -1.58858 102.97660 20943 ft 418 kts 275°
2026-05-07 12:21 -1.58617 102.94756 21461 ft 421 kts 275°
2026-05-07 12:21 -1.58374 102.91826 21975 ft 425 kts 275°
2026-05-07 12:21 -1.58094 102.88875 22483 ft 428 kts 280°
2026-05-07 12:21 -1.57277 102.86022 22972 ft 429 kts 294°
2026-05-07 12:22 -1.56082 102.83284 23457 ft 432 kts 295°
2026-05-07 12:22 -1.54852 102.80535 23881 ft 434 kts 295°
2026-05-07 12:22 -1.53627 102.77802 24301 ft 437 kts 295°
2026-05-07 12:22 -1.52387 102.75025 24731 ft 439 kts 295°
2026-05-07 12:23 -1.51145 102.72231 25134 ft 442 kts 295°
2026-05-07 12:23 -1.49897 102.69417 25536 ft 444 kts 295°
2026-05-07 12:23 -1.48642 102.66587 25908 ft 447 kts 295°
2026-05-07 12:23 -1.47377 102.63730 26254 ft 451 kts 295°
2026-05-07 12:24 -1.46108 102.60867 26634 ft 453 kts 295°
2026-05-07 12:24 -1.44828 102.57978 27009 ft 455 kts 295°
2026-05-07 12:24 -1.43546 102.55085 27364 ft 457 kts 295°
2026-05-07 12:24 -1.42251 102.52164 27715 ft 460 kts 295°
2026-05-07 12:25 -1.40974 102.49281 28054 ft 462 kts 295°
2026-05-07 12:25 -1.39666 102.46331 28381 ft 465 kts 295°
2026-05-07 12:25 -1.38355 102.43373 28716 ft 467 kts 295°
2026-05-07 12:25 -1.37038 102.40402 29041 ft 469 kts 295°
2026-05-07 12:26 -1.35714 102.37416 29390 ft 471 kts 295°
2026-05-07 12:26 -1.34393 102.34434 29694 ft 473 kts 295°
2026-05-07 12:26 -1.33057 102.31421 29998 ft 475 kts 295°
2026-05-07 12:26 -1.31719 102.28403 30275 ft 477 kts 295°
2026-05-07 12:27 -1.30369 102.25359 30567 ft 479 kts 295°
2026-05-07 12:27 -1.29043 102.22366 30853 ft 480 kts 295°
2026-05-07 12:27 -1.27689 102.19313 31199 ft 481 kts 295°
2026-05-07 12:27 -1.26339 102.16268 31585 ft 479 kts 295°
2026-05-07 12:28 -1.24991 102.13226 31770 ft 478 kts 295°
2026-05-07 12:28 -1.22304 102.07166 31821 ft 476 kts 295°
2026-05-07 12:29 -1.19619 102.01112 31821 ft 477 kts 295°
2026-05-07 12:29 -1.16949 101.95093 31818 ft 477 kts 295°
2026-05-07 12:30 -1.14262 101.89033 31821 ft 477 kts 295°
2026-05-07 12:30 -1.11575 101.82977 31816 ft 477 kts 295°
2026-05-07 12:31 -1.08886 101.76914 31815 ft 477 kts 295°
2026-05-07 12:31 -1.06197 101.70853 31816 ft 477 kts 295°
2026-05-07 12:32 -1.03507 101.64789 31812 ft 478 kts 295°
2026-05-07 12:32 -1.00854 101.58808 31697 ft 465 kts 295°
2026-05-07 12:32 -0.99553 101.55871 31527 ft 447 kts 295°
2026-05-07 12:33 -0.97137 101.50422 31105 ft 421 kts 295°
2026-05-07 12:33 -0.95953 101.47756 30613 ft 419 kts 296°
2026-05-07 12:33 -0.94472 101.45270 30109 ft 414 kts 311°
2026-05-07 12:34 -0.92412 101.43307 29571 ft 408 kts 327°
2026-05-07 12:34 -0.90040 101.41780 29047 ft 403 kts 330°
2026-05-07 12:34 -0.87667 101.40308 28554 ft 400 kts 330°
2026-05-07 12:34 -0.85316 101.38850 28045 ft 397 kts 330°
2026-05-07 12:35 -0.82975 101.37397 27557 ft 394 kts 330°
2026-05-07 12:35 -0.80662 101.35962 27085 ft 391 kts 330°
2026-05-07 12:35 -0.78383 101.34548 26620 ft 388 kts 330°
2026-05-07 12:35 -0.76149 101.33164 27583 ft 386 kts 329°
2026-05-07 12:36 -0.73783 101.31748 25537 ft 388 kts 330°
2026-05-07 12:36 -0.71507 101.30345 25221 ft 382 kts 328°
2026-05-07 12:36 -0.69534 101.28578 24768 ft 383 kts 310°
2026-05-07 12:36 -0.68204 101.26285 24314 ft 384 kts 291°
2026-05-07 12:37 -0.67618 101.23687 23870 ft 384 kts 278°
2026-05-07 12:37 -0.67285 101.21047 23457 ft 382 kts 278°
2026-05-07 12:37 -0.66966 101.18426 22984 ft 379 kts 278°
2026-05-07 12:37 -0.66641 101.15822 22539 ft 376 kts 278°
2026-05-07 12:38 -0.66423 101.14113 22253 ft 374 kts 278°
2026-05-07 12:38 -0.65979 101.10723 21679 ft 370 kts 278°
2026-05-07 12:38 -0.65643 101.08184 21246 ft 368 kts 278°
2026-05-07 12:38 -0.65307 101.05657 20818 ft 365 kts 278°
2026-05-07 12:39 -0.64974 101.03152 20382 ft 362 kts 278°
2026-05-07 12:39 -0.64645 101.00675 19965 ft 360 kts 278°
2026-05-07 12:39 -0.64315 100.98198 19563 ft 357 kts 278°
2026-05-07 12:39 -0.63989 100.95741 19167 ft 355 kts 278°
2026-05-07 12:40 -0.63774 100.94128 18913 ft 354 kts 278°
2026-05-07 12:40 -0.63452 100.91701 18526 ft 351 kts 278°
2026-05-07 12:40 -0.63131 100.89286 18145 ft 349 kts 278°
2026-05-07 12:40 -0.62813 100.86895 17717 ft 347 kts 278°
2026-05-07 12:41 -0.62496 100.84511 17304 ft 344 kts 278°
2026-05-07 12:41 -0.62082 100.81388 16746 ft 341 kts 278°
2026-05-07 12:41 -0.61871 100.79804 16416 ft 342 kts 278°
2026-05-07 12:41 -0.61557 100.77448 15935 ft 342 kts 278°
2026-05-07 12:42 -0.61245 100.75101 15462 ft 341 kts 278°
2026-05-07 12:42 -0.60938 100.72788 14988 ft 337 kts 278°
2026-05-07 12:42 -0.60667 100.70497 14537 ft 329 kts 271°
2026-05-07 12:42 -0.61032 100.68284 14088 ft 323 kts 247°
2026-05-07 12:43 -0.62243 100.66404 13746 ft 325 kts 224°
2026-05-07 12:43 -0.64075 100.65119 13378 ft 321 kts 206°
2026-05-07 12:43 -0.66064 100.64132 13003 ft 318 kts 204°
2026-05-07 12:43 -0.68048 100.63190 12623 ft 314 kts 204°
2026-05-07 12:44 -0.70004 100.62254 12351 ft 309 kts 204°
2026-05-07 12:44 -0.71937 100.61311 12108 ft 311 kts 205°
2026-05-07 12:44 -0.73875 100.60352 11860 ft 308 kts 205°
2026-05-07 12:44 -0.75787 100.59398 11630 ft 307 kts 205°
2026-05-07 12:45 -0.77666 100.58457 11390 ft 305 kts 205°
2026-05-07 12:45 -0.79556 100.57509 11189 ft 303 kts 205°
2026-05-07 12:45 -0.81436 100.56565 11051 ft 303 kts 206°
2026-05-07 12:45 -0.83320 100.55612 10915 ft 303 kts 205°
2026-05-07 12:46 -0.85193 100.54663 10772 ft 301 kts 206°
2026-05-07 12:46 -0.87061 100.53716 10636 ft 301 kts 206°
2026-05-07 12:46 -0.88923 100.52773 10489 ft 299 kts 206°
2026-05-07 12:46 -0.90776 100.51835 10362 ft 298 kts 206°
2026-05-07 12:47 -0.92629 100.50897 10220 ft 298 kts 206°
2026-05-07 12:47 -0.94467 100.49967 10084 ft 297 kts 206°
2026-05-07 12:47 -0.96285 100.49047 9949 ft 295 kts 206°
2026-05-07 12:47 -0.98110 100.48124 9812 ft 295 kts 206°
2026-05-07 12:48 -0.99940 100.47199 9670 ft 294 kts 206°
2026-05-07 12:48 -1.01769 100.46281 9511 ft 292 kts 206°
2026-05-07 12:48 -1.03584 100.45373 9365 ft 291 kts 206°
2026-05-07 12:48 -1.05394 100.44467 9218 ft 291 kts 206°
2026-05-07 12:49 -1.07202 100.43563 9067 ft 291 kts 206°
2026-05-07 12:49 -1.08999 100.42663 8920 ft 288 kts 206°
2026-05-07 12:49 -1.10658 100.41565 8749 ft 287 kts 225°
2026-05-07 12:49 -1.11727 100.39927 8604 ft 288 kts 249°
2026-05-07 12:50 -1.12313 100.38006 8433 ft 289 kts 253°
2026-05-07 12:50 -1.12868 100.36082 8259 ft 288 kts 253°
2026-05-07 12:50 -1.13420 100.34166 8088 ft 286 kts 252°
2026-05-07 12:50 -1.13976 100.32256 7920 ft 286 kts 252°
2026-05-07 12:51 -1.14535 100.30349 7690 ft 285 kts 252°
2026-05-07 12:51 -1.15092 100.28453 7443 ft 284 kts 252°
2026-05-07 12:51 -1.15647 100.26568 7207 ft 282 kts 252°
2026-05-07 12:51 -1.16195 100.24703 6981 ft 277 kts 252°
2026-05-07 12:52 -1.16721 100.22912 6732 ft 266 kts 252°
2026-05-07 12:52 -1.17237 100.21156 6489 ft 253 kts 252°
2026-05-07 12:52 -1.17712 100.19533 6263 ft 242 kts 252°
2026-05-07 12:52 -1.18176 100.17954 6027 ft 233 kts 252°
2026-05-07 12:53 -1.18627 100.16423 5777 ft 226 kts 252°
2026-05-07 12:53 -1.19064 100.14934 5520 ft 219 kts 252°
2026-05-07 12:53 -1.19428 100.13491 5263 ft 211 kts 264°
2026-05-07 12:53 -1.19167 100.12085 5081 ft 206 kts 296°
2026-05-07 12:54 -1.18231 100.11066 5044 ft 202 kts 328°
2026-05-07 12:54 -1.16933 100.10437 5039 ft 207 kts 333°
2026-05-07 12:54 -1.15651 100.09837 5044 ft 207 kts 333°
2026-05-07 12:54 -1.14345 100.09220 5045 ft 208 kts 333°
2026-05-07 12:55 -1.13041 100.08602 5042 ft 206 kts 333°
2026-05-07 12:55 -1.11660 100.08289 5050 ft 210 kts
2026-05-07 12:55 -1.10318 100.08821 5038 ft 209 kts 43°
2026-05-07 12:55 -1.09458 100.09981 5046 ft 209 kts 63°
2026-05-07 12:56 -1.08773 100.11247 5042 ft 206 kts 64°
2026-05-07 12:56 -1.08103 100.12513 5038 ft 207 kts 64°
2026-05-07 12:56 -1.07407 100.13781 5026 ft 208 kts 63°
2026-05-07 12:56 -1.06686 100.15045 5027 ft 211 kts 62°
2026-05-07 12:57 -1.05968 100.16279 5019 ft 208 kts 62°
2026-05-07 12:57 -1.05237 100.17522 5009 ft 206 kts 61°
2026-05-07 12:57 -1.04513 100.18749 4814 ft 204 kts 61°
2026-05-07 12:57 -1.03788 100.19981 4529 ft 206 kts 61°
2026-05-07 12:58 -1.03070 100.21199 4368 ft 201 kts 60°
2026-05-07 12:58 -1.02238 100.22350 4225 ft 209 kts 38°
2026-05-07 12:58 -1.01118 100.23303 4136 ft 212 kts 50°
2026-05-07 12:58 -1.00450 100.24561 3996 ft 202 kts 82°
2026-05-07 12:59 -1.00433 100.25953 3763 ft 201 kts 94°
2026-05-07 12:59 -1.00473 100.27342 3687 ft 199 kts 91°
2026-05-07 12:59 -1.00454 100.28729 3330 ft 199 kts 89°
2026-05-07 12:59 -1.00358 100.30089 3134 ft 198 kts 84°
2026-05-07 13:00 -1.00175 100.31451 2930 ft 197 kts 80°
2026-05-07 13:00 -0.99905 100.32791 2675 ft 196 kts 77°
2026-05-07 13:00 -0.99552 100.34100 2430 ft 194 kts 72°
2026-05-07 13:00 -0.98810 100.35154 2262 ft 184 kts 30°
2026-05-07 13:01 -0.97637 100.35540 2070 ft 174 kts
2026-05-07 13:01 -0.96516 100.35687 2024 ft 149 kts
2026-05-07 13:01 -0.95526 100.35665 2045 ft 141 kts 349°
2026-05-07 13:01 -0.94596 100.35415 2045 ft 137 kts 338°
2026-05-07 13:02 -0.93724 100.35053 2041 ft 137 kts 334°
2026-05-07 13:02 -0.92883 100.34662 2046 ft 138 kts 333°
2026-05-07 13:02 -0.91988 100.34248 2044 ft 138 kts 334°
2026-05-07 13:02 -0.91121 100.33846 2041 ft 138 kts 334°
2026-05-07 13:03 -0.90251 100.33442 2040 ft 138 kts 334°
2026-05-07 13:03 -0.89389 100.33042 2043 ft 136 kts 333°
2026-05-07 13:03 -0.88516 100.32637 1800 ft 139 kts 334°
2026-05-07 13:03 -0.87655 100.32237 1632 ft 138 kts 333°
2026-05-07 13:04 -0.86789 100.31837 1434 ft 135 kts 333°
2026-05-07 13:04 -0.85937 100.31441 1264 ft 135 kts 334°
2026-05-07 13:04 -0.85084 100.31045 1041 ft 135 kts 333°
2026-05-07 13:04 -0.84235 100.30651 874 ft 135 kts 333°
2026-05-07 13:05 -0.83393 100.30260 712 ft 134 kts 334°
2026-05-07 13:05 -0.82545 100.29866 574 ft 134 kts 334°
2026-05-07 13:05 -0.81704 100.29477 419 ft 135 kts 332°
2026-05-07 13:05 -0.80850 100.29080 271 ft 134 kts 334°
2026-05-07 13:06 -0.80016 100.28692 122 ft 133 kts 333°
2026-05-07 13:06 -0.79189 100.28305 18 ft 124 kts 334°
2026-05-07 13:06 -0.78624 100.28048 16 ft 54 kts 338°
2026-05-07 13:06 -0.78340 100.27918 14 ft 30 kts 334°
2026-05-07 13:07 -0.78197 100.27884 14 ft 15 kts 333°
2026-05-07 13:07 -0.78186 100.27873 15 ft 0 kts 299°
2026-05-07 13:07 -0.78181 100.27856 14 ft 9 kts 275°
2026-05-07 13:08 -0.78196 100.27841 14 ft 1 kts 164°
2026-05-07 13:08 -0.78244 100.27874 16 ft 17 kts 145°
2026-05-07 13:08 -0.78380 100.27934 13 ft 24 kts 157°
2026-05-07 13:08 -0.78535 100.28010 14 ft 21 kts 153°
2026-05-07 13:09 -0.78558 100.28113 15 ft 18 kts 67°
2026-05-07 13:09 -0.78501 100.28232 15 ft 20 kts 64°
2026-05-07 13:09 -0.78505 100.28345 15 ft 18 kts 147°
2026-05-07 13:09 -0.78600 100.28393 16 ft 9 kts 139°
2026-05-07 13:10 -0.78595 100.28441 17 ft 4 kts 54°
2026-05-07 13:10 -0.78584 100.28464 15 ft 0 kts 67°